[[{"header":{"parameterUnit":"m.s-1","parameterCategory":1,"la1":30.2991,"la2":30.254,"lo1":-89.0895,"lo2":-89.0444,"dy":0.0017,"dx":0.0017,"nx":28,"ny":28,"refTime":"2025-05-16T21:00:00:Z","depth":0,"parameterNumber":2,"parameterNumberName":"U-component_of_WINDS"},"data":[0,0,0,0,0,0,0,0,0,0,0,0,0,0,0,0,0,0,0,0,0,0,0,0,0,0,0,0,0,0,0,0,0,0,0,0,0,0,0,0,0,0,0,0,0,0,0,0,0,0,0,0,0,0,0,0,0,0,2.3888,2.3888,0,2.392,2.392,2.3921,2.3885,2.3884,2.3883,2.3881,2.3913,2.3915,2.3917,0,0,0,0,0,0,0,0,0,0,0,0,0,2.3793,2.3794,2.3888,2.3888,2.3888,2.392,2.392,2.3921,2.3886,2.3884,2.3882,2.3881,2.3913,2.3915,2.3918,0,0,0,0,0,0,0,0,0,0,0,0,0,2.383,2.3795,2.3888,2.3875,2.3874,2.392,2.392,2.3921,2.3886,2.3884,2.3882,2.388,2.3912,2.3915,2.3918,2.3978,0,0,2.3928,2.3929,0,0,0,0,0,0,0,0,2.3828,2.3834,2.3876,2.3876,2.3875,2.3897,2.3899,2.394,2.3886,2.3881,2.3881,2.3879,2.3909,2.3913,2.3923,2.3979,2.3981,2.3928,2.393,2.3931,2.3932,0,0,0,0,0,0,0,2.3826,2.3832,2.39,2.3877,2.3876,2.3866,2.387,2.3906,2.3906,2.3882,2.3879,2.3884,2.3909,2.392,2.3924,2.3981,2.3928,2.3931,2.3933,2.3934,2.4085,2.4087,0,0,0,0,0,0,2.3825,2.383,2.3899,2.3901,2.3846,2.387,2.3873,2.3892,2.3906,2.3906,2.3885,2.3882,2.3916,2.392,2.3925,2.3993,2.3931,2.3934,2.3936,2.4083,2.4086,2.4088,0,0,0,0,0,0,2.3823,2.3831,2.3898,2.3865,2.3873,2.3874,2.3894,2.3893,2.3905,2.3908,2.3908,2.3897,2.3914,2.392,2.3964,2.3994,2.3936,2.3938,2.4081,2.4084,2.4087,2.4132,0,0,0,0,0,0,2.382,2.3831,2.3854,2.3866,2.3875,2.3938,2.3896,2.3895,2.3911,2.3906,2.392,2.392,2.3913,2.396,2.3967,2.3997,2.3941,2.4078,2.4082,2.4086,2.4128,2.4136,2.4144,0,0,0,0,0,2.3817,2.3866,2.3856,2.3864,2.3904,2.394,2.3945,2.3937,2.3913,2.3936,2.3938,2.3919,2.399,2.3965,2.3973,2.4004,2.4076,2.4081,2.4085,2.4124,2.4135,2.4144,0,0,0,0,0,0,2.3858,2.3868,2.3856,2.3911,2.3925,2.3934,2.3963,2.3948,2.3969,2.3964,2.3953,2.3956,2.4002,2.4008,2.398,2.4061,2.4029,2.4035,2.4056,2.4065,2.4073,2.407,2.3944,0,0,0,0,0,2.3874,2.3903,2.3909,2.3957,2.3964,2.3962,2.3978,2.397,2.3984,2.399,2.3995,2.4009,2.4033,2.405,2.4074,2.4129,2.413,2.4154,2.4162,2.4169,2.4174,2.4201,2.4211,2.4104,2.4104,2.4103,0,0,2.3906,2.3915,2.3934,2.3965,2.3975,2.4004,2.3968,2.4,2.4021,2.3994,2.4036,2.404,2.4055,2.4104,2.4126,2.411,2.4204,2.4175,2.418,2.4182,2.4207,2.4217,2.4226,2.4107,2.4106,2.4106,0,0,2.3978,2.3989,2.4028,2.4039,2.4054,2.4052,2.4062,2.4073,2.4075,2.4116,2.4096,2.412,2.4164,2.4175,2.4186,2.426,2.4243,2.4268,2.4309,2.4335,2.4343,2.4351,2.4375,2.4384,2.4274,2.4274,2.4274,0,2.4016,2.4059,2.405,2.4084,2.4097,2.4074,2.4113,2.4123,2.4146,2.4155,2.4137,2.419,2.4198,2.4248,2.4266,2.4277,2.4285,2.4266,2.4343,2.4351,2.4357,2.438,2.4389,2.4277,2.4277,2.4276,2.4276,0,2.4103,2.4133,2.4163,2.4184,2.4201,2.4238,2.4233,2.4251,2.4241,2.4241,2.4282,2.4291,2.4315,2.4327,2.4318,2.4375,2.4364,2.4345,2.4312,2.437,2.4391,2.44,2.4281,2.428,2.4279,2.4278,0,0,2.4202,2.4217,2.4228,2.4236,2.4251,2.4274,2.4308,2.4331,2.4345,2.4361,2.4388,2.4425,2.4407,2.4419,2.4412,2.4435,2.449,2.4413,2.4413,2.4424,2.455,2.4562,2.4572,2.448,2.4481,2.4483,2.4548,0,2.4273,2.4332,2.4324,2.438,2.4406,2.4384,2.4414,2.4425,2.4426,2.4447,2.4448,2.4473,2.4449,2.4455,2.4478,2.4479,2.4515,2.4474,2.4502,2.4503,2.4497,2.4584,2.4598,2.4658,2.4556,2.4557,2.4558,0,2.4363,2.4381,2.444,2.4448,2.4459,2.4485,2.4504,2.4526,2.4538,2.4536,2.455,2.4537,2.457,2.4538,2.4581,2.4553,2.4565,2.4567,2.4569,2.4569,2.4533,2.4584,2.4678,2.4686,2.4572,2.4571,2.457,0,2.4425,2.4465,2.4504,2.4512,2.4524,2.4543,2.4548,2.4558,2.4572,2.4589,2.4597,2.4617,2.4628,2.4644,2.4636,2.4614,2.468,2.4648,2.4678,2.4678,2.4691,2.469,2.4785,2.4703,2.4703,2.4702,2.4702,0,2.4504,2.4539,2.4532,2.4556,2.4595,2.4585,2.4624,2.4627,2.4636,2.4659,2.4642,2.4664,2.4655,2.4676,2.4671,2.4705,2.4711,2.4709,2.4707,2.4709,2.4709,2.4715,2.4709,2.4705,2.4704,2.4704,2.4703,0,2.4579,2.4576,2.4617,2.4624,2.4627,2.4655,2.466,2.4682,2.4681,2.471,2.4717,2.4715,2.4738,2.4734,2.476,2.4756,2.4799,2.4793,2.4795,2.4792,2.4821,2.4818,2.4922,2.4934,2.4846,2.4847,2.4848,0,2.4628,2.4655,2.4664,2.4678,2.4685,2.4709,2.4722,2.4713,2.4728,2.4742,2.4762,2.4784,2.4801,2.4839,2.484,2.4859,2.4852,2.4887,2.4854,2.4855,2.4849,2.4846,2.4847,2.4892,2.4893,2.4894,2.4895,0,2.4714,2.471,2.473,2.4749,2.4765,2.478,2.4793,2.4805,2.4798,2.4814,2.4838,2.4851,2.4877,2.4898,2.4916,2.4921,2.4906,2.4905,2.4913,2.4914,2.4913,2.4911,2.481,2.4903,2.4902,2.4901,2.4901,2.49,2.4775,2.4797,2.4806,2.4828,2.4837,2.4849,2.4869,2.487,2.489,2.491,2.4904,2.493,2.494,2.4962,2.4969,2.4988,2.4975,2.4986,2.4989,2.4991,2.4993,2.4912,2.4992,2.4992,2.4991,2.4991,2.4991,0,2.4857,2.4862,2.4883,2.4901,2.4917,2.4903,2.4916,2.4931,2.4954,2.4964,2.4981,2.5007,2.5027,2.5029,2.5048,2.5063,2.5056,2.5068,2.5065,2.5066,2.5006,2.4996,2.5073,2.5073,2.5073,2.5073,2.5073,2.5073,2.4902,2.4937,2.4934,2.4973,2.4977,2.5003,2.5011,2.5022,2.5029,2.5059,2.5076,2.5077,2.5083,2.5102,2.5119,2.5119,2.5126,2.5139,2.5136,2.5079,2.5071,2.5063,2.5054,2.5141,2.5142,2.5195,2.5195,2.5196]},{"header":{"parameterUnit":"m.s-1","parameterCategory":1,"la1":30.2991,"la2":30.254,"lo1":-89.0895,"lo2":-89.0444,"dy":0.0017,"dx":0.0017,"nx":28,"ny":28,"refTime":"2025-05-16T21:00:00:Z","depth":0,"parameterNumber":3,"parameterNumberName":"V-component_of_WINDS"},"data":[0,0,0,0,0,0,0,0,0,0,0,0,0,0,0,0,0,0,0,0,0,0,0,0,0,0,0,0,0,0,0,0,0,0,0,0,0,0,0,0,0,0,0,0,0,0,0,0,0,0,0,0,0,0,0,0,0,0,4.0042,4.0041,0,3.9997,3.9996,3.9996,3.9939,3.9938,3.9937,3.9936,3.9889,3.9889,3.9888,0,0,0,0,0,0,0,0,0,0,0,0,0,4.0078,4.0077,4.0042,4.0041,4.0041,3.9997,3.9996,3.9996,3.9939,3.9938,3.9937,3.9936,3.9889,3.9889,3.9888,0,0,0,0,0,0,0,0,0,0,0,0,0,4.005,4.0077,4.0042,4.0007,4.0004,3.9997,3.9996,3.9995,3.9939,3.9938,3.9937,3.9935,3.9889,3.9889,3.9888,3.9911,0,0,3.9886,3.9886,0,0,0,0,0,0,0,0,4.0052,4.0049,4.0013,4.001,4.0006,3.9972,3.9991,3.9967,3.994,3.9964,3.9936,3.9935,3.9918,3.9915,3.9909,3.9909,3.9907,3.9886,3.9886,3.9886,3.9885,0,0,0,0,0,0,0,4.0054,4.0051,4.0024,4.0013,4.0008,3.9994,3.9988,3.9987,3.9949,3.9962,3.9957,3.9953,3.9915,3.991,3.9908,3.9907,3.9886,3.9886,3.9885,3.9885,3.9922,3.9923,0,0,0,0,0,0,4.0061,4.0053,4.0025,4.0023,4.0026,3.9994,3.9988,3.9984,3.9949,3.9942,3.9954,3.995,3.9912,3.9908,3.9906,3.9929,3.9886,3.9885,3.9885,3.992,3.9922,3.9923,0,0,0,0,0,0,4.0062,4.0059,4.0027,4.0036,4.0031,3.9995,3.9991,3.9984,3.9978,3.9943,3.9936,3.9955,3.991,3.9907,3.991,3.9927,3.9885,3.9884,3.9919,3.9921,3.9923,3.9977,0,0,0,0,0,0,4.0063,4.006,4.0069,4.0037,4.0031,4.0033,3.9992,3.9984,3.9978,3.9972,3.9942,3.9936,3.9909,3.9911,3.991,3.9925,3.9884,3.9917,3.992,3.9922,3.9974,3.9981,3.9987,0,0,0,0,0,4.0065,4.0086,4.007,4.0067,4.0041,4.0034,4.0031,3.9999,3.9979,3.9987,3.9965,3.9937,3.9926,3.9912,3.991,3.9925,3.9916,3.9919,3.9922,3.9971,3.998,3.9987,0,0,0,0,0,0,4.012,4.0081,4.0062,4.0074,4.0058,4.0025,4.0034,4.001,3.9999,3.9994,3.9956,3.9949,3.9957,3.9942,3.9927,3.9945,3.9917,3.9919,3.9955,3.9963,3.9969,3.9972,3.9883,0,0,0,0,0,4.0134,4.0132,4.0098,4.0111,4.0104,4.0071,4.0066,4.0044,4.0025,4.0018,3.9995,3.9978,3.997,3.9966,3.9957,3.9972,3.9964,3.9981,3.9988,3.9994,3.9996,4.0001,4.0008,3.9933,3.9933,3.9933,0,0,4.0162,4.014,4.0141,4.0122,4.0106,4.0104,4.0065,4.0065,4.0063,4.0018,4.0019,4.0002,3.998,3.9989,3.9992,3.9977,4.0015,3.9998,4.0002,4.0001,4.0005,4.0012,4.0018,3.9935,3.9935,3.9935,0,0,4.0211,4.0196,4.0204,4.019,4.0167,4.0145,4.0147,4.0118,4.0105,4.0106,4.0072,4.0068,4.0056,4.0041,4.0032,4.0076,4.005,4.0075,4.0109,4.0114,4.012,4.0125,4.0139,4.0145,4.0077,4.0078,4.0078,0,4.0249,4.0244,4.0212,4.0213,4.0205,4.0165,4.0173,4.0161,4.0137,4.0132,4.0115,4.0098,4.0081,4.0085,4.0096,4.009,4.0091,4.0077,4.0122,4.0127,4.0131,4.0144,4.0149,4.0081,4.008,4.008,4.008,0,4.0291,4.0288,4.0298,4.0276,4.0269,4.0274,4.0242,4.0239,4.0217,4.0196,4.0197,4.0175,4.016,4.016,4.0138,4.016,4.0151,4.0129,4.0099,4.0141,4.0153,4.0157,4.0085,4.0084,4.0083,4.0082,0,0,4.0372,4.0332,4.0336,4.0325,4.0298,4.0295,4.0298,4.0284,4.0281,4.0266,4.0266,4.0257,4.0236,4.0226,4.0203,4.0208,4.0242,4.0184,4.0183,4.0194,4.0263,4.0278,4.0285,4.0225,4.0226,4.0226,4.0264,0,4.0415,4.0418,4.0389,4.0399,4.0396,4.0358,4.036,4.0343,4.0324,4.0318,4.0296,4.029,4.0263,4.0257,4.026,4.0237,4.0255,4.0234,4.0223,4.0223,4.0228,4.0291,4.0308,4.0344,4.0268,4.0269,4.027,0,4.0465,4.0453,4.0463,4.0435,4.0432,4.0435,4.0419,4.0414,4.0394,4.0379,4.0368,4.0341,4.0341,4.0314,4.0312,4.0299,4.0293,4.0281,4.0281,4.0278,4.0248,4.0287,4.0356,4.036,4.0277,4.0276,4.0276,0,4.0522,4.0508,4.0512,4.0504,4.0471,4.0474,4.046,4.0438,4.0431,4.0418,4.0412,4.0399,4.0391,4.0381,4.0351,4.0334,4.0352,4.0323,4.0338,4.0339,4.0342,4.0342,4.0409,4.0342,4.0342,4.0342,4.0342,0,4.0572,4.0579,4.0537,4.0539,4.0546,4.0512,4.052,4.0502,4.0483,4.0481,4.0447,4.0446,4.0407,4.0401,4.0377,4.0378,4.0375,4.0363,4.0356,4.0365,4.0366,4.0359,4.0355,4.0343,4.0343,4.0342,4.0342,0,4.0635,4.0608,4.0609,4.0578,4.057,4.0576,4.0549,4.055,4.0529,4.0526,4.0523,4.049,4.048,4.045,4.0433,4.0417,4.0425,4.0413,4.0432,4.0427,4.0444,4.0442,4.0507,4.0513,4.0444,4.0445,4.0445,0,4.0668,4.0673,4.0642,4.0638,4.0626,4.0621,4.0613,4.0581,4.0575,4.0552,4.0554,4.0543,4.0531,4.0518,4.0491,4.0478,4.0465,4.0488,4.0462,4.047,4.0463,4.0462,4.0462,4.0493,4.0494,4.0495,4.0496,0,4.0728,4.0714,4.0706,4.0692,4.0685,4.0673,4.0658,4.0657,4.062,4.0615,4.0605,4.0596,4.0579,4.0567,4.0549,4.0534,4.0508,4.0504,4.0507,4.0515,4.0525,4.0518,4.0445,4.0503,4.0502,4.0501,4.0501,4.0501,4.0776,4.0778,4.0757,4.0748,4.0734,4.0721,4.072,4.0699,4.0691,4.0674,4.0655,4.0648,4.0626,4.06,4.0586,4.0579,4.0565,4.0569,4.057,4.0571,4.0575,4.0527,4.0576,4.0576,4.0575,4.0575,4.0575,0,4.0833,4.0818,4.081,4.0791,4.0784,4.0762,4.0745,4.074,4.0734,4.0717,4.0706,4.0695,4.0683,4.0656,4.0641,4.064,4.0628,4.0637,4.0636,4.0633,4.0589,4.0587,4.0648,4.0648,4.0648,4.0648,4.0648,4.0647,4.0862,4.0863,4.0847,4.0841,4.0826,4.0818,4.081,4.0798,4.0784,4.0773,4.0763,4.0746,4.0724,4.0708,4.0695,4.0687,4.0683,4.0696,4.0684,4.0643,4.0636,4.0629,4.0628,4.0696,4.0696,4.0728,4.0729,4.0729]}]]